Regional Weather Roundup
Issued by NWS Portland, ME

Current Version | Previous Version | Text Only | Print | Product List | Glossary Off
Versions: 1 2 3 4 5 6 7 8 9 10 11 12 13 14 15 16 17 18 19 20 21 22 23 24 25 26 27 28 29 30 31 32 33 34 35 36 37 38 39 40 41 42 43 44 45 46 47 48 49 50
971 ASUS41 KGYX 211205 RWRGYX WEATHER ROUNDUP FOR MAINE AND NEW HAMPSHIRE NATIONAL WEATHER SERVICE GRAY ME 700 AM EST TUE NOV 21 2017 MEZ002-005-006-010-012-015-018-020-021-024-026-027-029-211300- MAINE CITY SKY/WX TMP DP RH WIND PRES REMARKS PORTLAND PTCLDY 24 19 81 VRB3 30.08R 6HR MIN TEMP: 24; 6HR MAX TEMP: 28; SANFORD N/A 27 25 92 SW6 30.08R WISCASSET CLEAR 21 18 88 CALM 30.10R 6HR MIN TEMP: 20; 6HR MAX TEMP: 22; ROCKLAND CLEAR 20 17 88 CALM 30.10R FRYEBURG CLEAR 20 20 100 CALM 30.06R 6HR MIN TEMP: 20; 6HR MAX TEMP: 29; LEWISTONAUBURN CLEAR 17 14 88 CALM 30.07S AUGUSTA CLEAR 22 14 71 CALM 30.07S 6HR MIN TEMP: 20; 6HR MAX TEMP: 24; WATERVILLE MOCLDY 21 17 84 CALM 30.04R BANGOR CLOUDY 19 13 77 S3 30.10R 6HR MIN TEMP: 13; 6HR MAX TEMP: 19; GREENVILLE NOT AVBL MILLINOCKET CLOUDY 16 9 74 CALM 30.05S 6HR MIN TEMP: 14; 6HR MAX TEMP: 17; HOULTON CLEAR 13 7 77 SW5 30.03R 6HR MIN TEMP: 11; 6HR MAX TEMP: 14; PRESQUE ISLE CLOUDY 12 8 84 VRB3 30.02R 6HR MIN TEMP: 10; 6HR MAX TEMP: 12; FRENCHVILLE CLOUDY 7 2 80 SE3 29.94R 6HR MIN TEMP: 7; 6HR MAX TEMP: 11; CARIBOU CLEAR 12 6 77 SW7 29.99R 6HR MIN TEMP: 10; 6HR MAX TEMP: 13; $$ NHZ002-005-008-009-011-012-014-211300- NEW HAMPSHIRE CITY SKY/WX TMP DP RH WIND PRES REMARKS PORTSMOUTH PTCLDY 31 24 75 SW6 30.07R ROCHESTER CLEAR 31 27 85 CALM 30.07R 6HR MIN TEMP: 29; 6HR MAX TEMP: 34; NASHUA CLEAR 25 24 96 CALM 30.09R MANCHESTER CLEAR 32 25 75 CALM 30.07R 6HR MIN TEMP: 32; 6HR MAX TEMP: 39; CONCORD CLEAR 26 22 84 CALM 30.06S 6HR MIN TEMP: 25; 6HR MAX TEMP: 36; LACONIA CLEAR 24 23 96 CALM 30.06R PLYMOUTH FAIR 22 21 96 CALM 30.06R BERLIN CLEAR 17 15 92 CALM 29.98R 6HR MIN TEMP: 16; 6HR MAX TEMP: 24; WHITEFIELD CLEAR 18 16 92 CALM 29.97F 6HR MIN TEMP: 17; 6HR MAX TEMP: 24; JAFFREY CLEAR 26 25 96 CALM 30.06R 6HR MIN TEMP: 26; 6HR MAX TEMP: 35; KEENE CLEAR 24 23 96 CALM 30.07S LEBANON CLEAR 22 20 92 CALM 30.02R 6HR MIN TEMP: 21; 6HR MAX TEMP: 30; MT WASHINGTON NOT AVBL $$ VTZ005-007-008-211300- VERMONT CITY SKY/WX TMP DP RH WIND PRES REMARKS ST JOHNSBURY N/A 21 19 92 MISG 29.99R MONTPELIER CLEAR 25 23 92 SE3 29.99R BURLINGTON PTCLDY 36 26 67 S15G22 29.92F $$ MAZ007-012-024-CTZ003-RIZ002-NYZ038-NYZ072-211300- SOUTHERN NEW ENGLAND AND NY CITY SKY/WX TMP DP RH WIND PRES REMARKS BOSTON PTCLDY 36 26 67 SW6 30.11R WORCESTER CLEAR 32 21 64 SW13 30.06R NANTUCKET CLEAR 50 39 66 SW20 30.16R PROVIDENCE MOCLDY 40 32 73 SW8 30.13R HARTFORD PTCLDY 31 24 75 SE5 30.11R ALBANY PTCLDY 34 22 61 S5 30.03S NEW YORK CITY PTCLDY 44 29 55 SW8 30.13R $$ ANZ081-ANZ082-ANZ150-NHZ014-MEZ023>029-211300- COASTAL MARINE OBSERVATIONS STATION/POSITION TIME TEMP WIND PRES WAVE AIR SEA DIR/SP/G HT/PER (UTC) (F) (DEG/KT/KT) (MB) (FT/S) MOUNT DESERT ROC 1200 33 150/ 5/ 6 1019.9R MATINICUS ROCK 1100 34 200/ 2/ 3 1018.6R ISLE OF SHOALS 1100 41 220/ 20/ 22 1018.2R JEFFREYS LEDGE 1136 49 N/A 4/ 5 CASHES LEDGE BUO 1050 46 51 1018.7 5/ 6 GEORGES BANK BUO 1050 51 53 1021.4 14/ 9 $$ .............KEY.............. WCI - WIND CHILL TC - TEMPERATURE IN CELSIUS VSB - VISIBILITY IN MILES HX - HEAT INDEX FAIR- INDICATES FEW OR NO CLOUDS BELOW 12,000 FT, WITH NO SIGNIFICANT WEATHER AND/OR OBSTRUCTIONS TO VISIBILITY.

USA.gov is the U.S. government's official web portal to all federal, state and local government web resources and services.